Location: 22
(39.7117°N, 89.5929°W)
Time: 09:22:36
(UTC-05:00)

S-56A Canister/Altair - Pass Details

Date: 11 February 2023
Orbit: 638 x 2493 km, 38.9° (Epoch: 25 March)

Event Time Altitude Azimuth Distance (km) Brightness Sun altitude
Rises 09:18:38 0° 254° (WSW) 3,175 10.4 22.8°
Reaches altitude 10° 09:21:11 10° 252° (WSW) 2,132 9.6 23.1°
Maximum altitude 09:25:50 70° 170° (S) 677 8.0 23.8°
Drops below altitude 10° 09:30:21 10° 86° (E) 2,070 10.4 24.4°
Sets 09:32:47 0° 84° (E) 3,074 11.1 24.7°
